Monroe, MI

4:31 PM EDT on August 28, 2016 (GMT -0400)
Custer

Weather History for KTTF - March, 2013

Change the Weather History Date:

Tuesday, March 19, 2013

  Actual Average Record
Temperature  
Mean Temperature 30 °F -  
Max Temperature 35 °F 43 °F 84 °F (2012)
Min Temperature 24 °F 27 °F 1 °F (1997)
Degree Days  
Heating Degree Days 36    
Moisture  
Dew Point 21 °F    
Average Humidity 70    
Maximum Humidity 93    
Minimum Humidity 52    
Precipitation  
Precipitation 0.00 in - - ()
Sea Level Pressure  
Sea Level Pressure 29.79 in    
Wind  
Wind Speed 19 mph (WSW)    
Max Wind Speed 32 mph    
Max Gust Speed 39 mph    
Visibility 9 miles    
Events Snow    
Averages and records for this station are not official NWS values.
T = Trace of Precipitation, MM = Missing Value Source: NWS Daily Summary

Daily Weather History Graph

Daily Weather History Graph

Search for Another Location

Airport or City:

Trip Planner

Search our weather history database for the weather conditions in past years. The results will help you decide how hot, cold, wet, or windy it might be!

Date:

Astronomy

Mar. 19, 2013 Rise Set
Actual Time 7:38 AM EDT 7:45 PM EDT
Civil Twilight 7:10 AM EDT 8:12 PM EDT
Nautical Twilight 6:38 AM EDT 8:45 PM EDT
Astronomical Twilight 6:04 AM EDT 9:18 PM EDT
Moon 12:22 PM EDT (3/19) 2:36 AM EDT (3/19)
Length of Visible Light 13h 02m
Length of Day
12h 06m
Waxing Crescent, 49% of the Moon is Illuminated
Mar 19
Waxing Crescent
Mar 19
First Quarter
Mar 27
Full
Apr 3
Last Quarter
Apr 10
New

Hourly Weather History & Observations

Time (EDT) Temp. Windchill Dew Point Humidity Pressure Visibility Wind Dir Wind Speed Gust Speed Precip Events Conditions
12:15 AM 35.6 °F 25.9 °F 33.8 °F 93% 29.65 in 10.0 mi WSW 16.1 mph 21.9 mph N/A   Overcast
12:35 AM 35.6 °F 27.1 °F 33.8 °F 93% 29.64 in 10.0 mi WSW 12.7 mph 19.6 mph N/A   Overcast
12:55 AM 35.6 °F 27.1 °F 33.8 °F 93% 29.64 in 10.0 mi WSW 12.7 mph - N/A   Overcast
1:15 AM 35.6 °F 26.6 °F 33.8 °F 93% 29.64 in 7.0 mi SW 13.8 mph 19.6 mph N/A   Overcast
1:35 AM 35.6 °F 23.7 °F 30.2 °F 81% 29.64 in 10.0 mi WSW 24.2 mph 32.2 mph N/A   Mostly Cloudy
1:55 AM 35.6 °F 23.0 °F 26.6 °F 70% 29.64 in 10.0 mi WSW 27.6 mph 36.8 mph N/A   Overcast
2:15 AM 33.8 °F 21.3 °F 26.6 °F 75% 29.64 in 10.0 mi WSW 24.2 mph 33.4 mph N/A   Mostly Cloudy
2:56 AM 33.8 °F 21.3 °F 26.6 °F 75% 29.65 in 10.0 mi WSW 24.2 mph 33.4 mph N/A   Overcast
3:16 AM 32.0 °F 19.5 °F 24.8 °F 75% 29.66 in 10.0 mi WSW 21.9 mph 32.2 mph N/A   Overcast
3:36 AM 32.0 °F 20.1 °F 24.8 °F 75% 29.67 in 10.0 mi WSW 19.6 mph 27.6 mph N/A   Overcast
3:56 AM 32.0 °F 19.8 °F 24.8 °F 75% 29.68 in 10.0 mi West 20.7 mph 26.5 mph N/A   Overcast
4:16 AM 30.2 °F 17.8 °F 24.8 °F 80% 29.69 in 10.0 mi West 19.6 mph 33.4 mph N/A   Overcast
4:36 AM 30.2 °F 16.2 °F 23.0 °F 75% 29.70 in 10.0 mi WSW 25.3 mph 33.4 mph N/A   Overcast
4:56 AM 28.4 °F 16.2 °F 21.2 °F 74% 29.70 in 10.0 mi West 17.3 mph 28.8 mph N/A   Overcast
5:16 AM 28.4 °F 16.2 °F 21.2 °F 74% 29.70 in 10.0 mi West 17.3 mph 21.9 mph N/A   Overcast
5:31 AM 28.4 °F 14.1 °F 21.2 °F 74% 29.71 in 10.0 mi West 24.2 mph 29.9 mph N/A   Overcast
5:51 AM 28.4 °F 15.4 °F 21.2 °F 74% 29.71 in 10.0 mi WSW 19.6 mph 26.5 mph N/A   Overcast
6:12 AM 28.4 °F 15.1 °F 21.2 °F 74% 29.72 in 7.0 mi WSW 20.7 mph 28.8 mph N/A Snow Light Snow
6:32 AM 26.6 °F 13.1 °F 19.4 °F 74% 29.73 in 10.0 mi WSW 19.6 mph 26.5 mph N/A Snow Light Snow
6:52 AM 26.6 °F 13.8 °F 19.4 °F 74% 29.73 in 10.0 mi WSW 17.3 mph 26.5 mph N/A   Overcast
7:12 AM 26.6 °F 12.4 °F 21.2 °F 80% 29.75 in 10.0 mi WSW 21.9 mph 27.6 mph N/A Snow Light Snow
7:32 AM 26.6 °F 11.7 °F 17.6 °F 69% 29.76 in 10.0 mi WSW 24.2 mph 31.1 mph N/A Snow Light Snow
7:52 AM 26.6 °F 11.7 °F 17.6 °F 69% 29.76 in 10.0 mi WSW 24.2 mph 35.7 mph N/A   Overcast
8:12 AM 26.6 °F 13.4 °F 17.6 °F 69% 29.76 in 10.0 mi WSW 18.4 mph 25.3 mph N/A Snow Light Snow
8:32 AM 24.8 °F 10.7 °F 17.6 °F 74% 29.76 in 10.0 mi WSW 19.6 mph 28.8 mph N/A Snow Light Snow
8:52 AM 26.6 °F 12.7 °F 17.6 °F 69% 29.76 in 10.0 mi WSW 20.7 mph 31.1 mph N/A Snow Light Snow
9:13 AM 26.6 °F 13.1 °F 17.6 °F 69% 29.76 in 10.0 mi WSW 19.6 mph 27.6 mph N/A Snow Light Snow
9:33 AM 26.6 °F 12.7 °F 17.6 °F 69% 29.76 in 10.0 mi West 20.7 mph 29.9 mph N/A   Overcast
9:53 AM 26.6 °F 14.3 °F 17.6 °F 69% 29.76 in 10.0 mi WSW 16.1 mph 25.3 mph N/A   Overcast
10:13 AM 26.6 °F 14.3 °F 19.4 °F 74% 29.76 in 1.8 mi West 16.1 mph - N/A Snow Light Snow
10:33 AM 24.8 °F 10.7 °F 21.2 °F 86% 29.77 in 0.5 mi WSW 19.6 mph 26.5 mph N/A Snow Light Snow
10:53 AM 26.6 °F 13.4 °F 17.6 °F 69% 29.77 in 10.0 mi West 18.4 mph 27.6 mph N/A   Overcast
11:13 AM 26.6 °F 12.0 °F 15.8 °F 64% 29.77 in 10.0 mi West 23.0 mph 32.2 mph N/A   Overcast
11:33 AM 26.6 °F 13.4 °F 15.8 °F 64% 29.78 in 10.0 mi WSW 18.4 mph - N/A   Overcast
11:53 AM 26.6 °F 12.7 °F 19.4 °F 74% 29.79 in 7.0 mi West 20.7 mph 27.6 mph N/A Snow Light Snow
12:13 PM 26.6 °F 13.4 °F 19.4 °F 74% 29.80 in 3.0 mi West 18.4 mph 24.2 mph N/A Snow Light Snow
12:34 PM 26.6 °F 12.0 °F 19.4 °F 74% 29.80 in 7.0 mi West 23.0 mph 26.5 mph N/A Snow Light Snow
12:54 PM 28.4 °F 14.4 °F 17.6 °F 64% 29.80 in 10.0 mi WSW 23.0 mph 31.1 mph N/A   Overcast
1:14 PM 28.4 °F 14.1 °F 15.8 °F 59% 29.81 in 10.0 mi WSW 24.2 mph 32.2 mph N/A   Overcast
1:34 PM 28.4 °F 14.1 °F 17.6 °F 64% 29.82 in 10.0 mi WSW 24.2 mph 27.6 mph N/A   Overcast
1:54 PM 28.4 °F 15.1 °F 17.6 °F 64% 29.82 in 10.0 mi WSW 20.7 mph 28.8 mph N/A Snow Light Snow
2:14 PM 28.4 °F 15.8 °F 19.4 °F 69% 29.82 in 10.0 mi WSW 18.4 mph 28.8 mph N/A   Overcast
2:34 PM 28.4 °F 13.8 °F 17.6 °F 64% 29.82 in 10.0 mi WSW 25.3 mph 33.4 mph N/A   Overcast
2:54 PM 28.4 °F 14.1 °F 17.6 °F 64% 29.83 in 10.0 mi West 24.2 mph 29.9 mph N/A   Overcast
3:14 PM 28.4 °F 13.8 °F 17.6 °F 64% 29.83 in 10.0 mi WSW 25.3 mph 31.1 mph N/A   Overcast
3:34 PM 30.2 °F 16.2 °F 19.4 °F 64% 29.83 in 10.0 mi WSW 25.3 mph 33.4 mph N/A   Overcast
3:54 PM 30.2 °F 16.5 °F 19.4 °F 64% 29.83 in 10.0 mi West 24.2 mph 29.9 mph N/A   Overcast
4:15 PM 30.2 °F 14.7 °F 19.4 °F 64% 29.84 in 10.0 mi WSW 32.2 mph 39.1 mph N/A   Overcast
4:35 PM 30.2 °F 16.8 °F 19.4 °F 64% 29.84 in 10.0 mi West 23.0 mph 35.7 mph N/A   Overcast
4:55 PM 30.2 °F 16.8 °F 19.4 °F 64% 29.85 in 0.8 mi West 23.0 mph 35.7 mph N/A   Haze
5:15 PM 30.2 °F 15.9 °F 19.4 °F 64% 29.85 in 10.0 mi WSW 26.5 mph 32.2 mph N/A   Overcast
5:35 PM 30.2 °F 16.5 °F 19.4 °F 64% 29.86 in 10.0 mi WSW 24.2 mph 32.2 mph N/A   Overcast
5:55 PM 32.0 °F 19.5 °F 19.4 °F 60% 29.86 in 10.0 mi West 21.9 mph 35.7 mph N/A   Overcast
6:15 PM 32.0 °F 20.8 °F 19.4 °F 60% 29.87 in 10.0 mi West 17.3 mph 29.9 mph N/A   Overcast
6:35 PM 33.8 °F 22.8 °F 17.6 °F 52% 29.87 in 10.0 mi West 18.4 mph 26.5 mph N/A   Overcast
6:56 PM 32.0 °F 18.4 °F 17.6 °F 55% 29.88 in 10.0 mi West 26.5 mph 32.2 mph N/A   Overcast
7:16 PM 32.0 °F 19.5 °F 19.4 °F 60% 29.89 in 10.0 mi West 21.9 mph 27.6 mph N/A   Overcast
7:36 PM 32.0 °F 21.2 °F 19.4 °F 60% 29.89 in 10.0 mi West 16.1 mph 21.9 mph N/A   Overcast
7:56 PM 32.0 °F 20.8 °F 19.4 °F 60% 29.90 in 10.0 mi West 17.3 mph 24.2 mph N/A   Overcast
8:16 PM 30.2 °F 18.9 °F 19.4 °F 64% 29.91 in 10.0 mi West 16.1 mph 20.7 mph N/A   Mostly Cloudy
8:36 PM 30.2 °F 19.3 °F 19.4 °F 64% 29.91 in 10.0 mi West 15.0 mph 19.6 mph N/A   Scattered Clouds
8:56 PM 30.2 °F 20.2 °F 19.4 °F 64% 29.92 in 10.0 mi West 12.7 mph - N/A   Scattered Clouds
9:16 PM 30.2 °F 20.8 °F 19.4 °F 64% 29.92 in 10.0 mi West 11.5 mph 17.3 mph N/A   Clear
9:31 PM 30.2 °F 20.8 °F 19.4 °F 64% 29.93 in 10.0 mi West 11.5 mph - N/A   Clear
9:51 PM 30.2 °F 21.9 °F 19.4 °F 64% 29.93 in 10.0 mi West 9.2 mph - N/A   Clear
10:12 PM 28.4 °F 19.1 °F 19.4 °F 69% 29.94 in 10.0 mi West 10.4 mph - N/A   Clear
10:32 PM 28.4 °F 19.7 °F 19.4 °F 69% 29.94 in 10.0 mi West 9.2 mph - N/A   Clear
10:52 PM 28.4 °F 19.7 °F 19.4 °F 69% 29.94 in 10.0 mi West 9.2 mph - N/A   Clear
11:12 PM 28.4 °F 18.5 °F 19.4 °F 69% 29.94 in 10.0 mi West 11.5 mph - N/A   Clear
11:32 PM 28.4 °F 19.1 °F 19.4 °F 69% 29.94 in 10.0 mi West 10.4 mph - N/A   Clear
11:52 PM 28.4 °F 19.7 °F 19.4 °F 69% 29.94 in 10.0 mi West 9.2 mph - N/A   Clear